2023/10/23 00:00:00,24.5, 8.4
2023/10/23 00:10:00,24.4, 8.1
2023/10/23 00:20:00,24.4, 7.9
2023/10/23 00:30:00,24.4, 8.1
2023/10/23 00:40:00,24.4, 8.0
2023/10/23 00:50:00,24.4, 7.8
2023/10/23 01:00:00,24.3, 7.8
2023/10/23 01:10:00,24.4, 7.9
2023/10/23 01:20:00,24.4, 7.2
2023/10/23 01:30:00,24.3, 8.1
2023/10/23 01:40:00,24.4, 8.1
2023/10/23 01:50:00,24.3, 8.0
2023/10/23 02:00:00,24.2, 7.9
2023/10/23 02:10:00,24.3, 8.0
2023/10/23 02:20:00,24.3, 7.9
2023/10/23 02:30:00,24.4, 8.1
2023/10/23 02:40:00,24.4, 8.1
2023/10/23 02:50:00,24.4, 7.9
2023/10/23 03:00:00,24.3, 8.0
2023/10/23 03:10:00,24.3, 7.9
2023/10/23 03:20:00,24.3, 7.9
2023/10/23 03:30:00,24.2, 7.8
2023/10/23 03:40:00,24.2, 7.7
2023/10/23 03:50:00,24.3, 7.6
2023/10/23 04:00:00,24.3, 7.6
2023/10/23 04:10:00,23.9, 7.7
2023/10/23 04:20:00,24.1, 7.6
2023/10/23 04:30:00,24.2, 7.2
2023/10/23 04:40:00,24.1, 7.5
2023/10/23 04:50:00,24.2, 7.2
2023/10/23 05:00:00,24.3, 7.4
2023/10/23 05:10:00,24.3, 7.4
2023/10/23 05:20:00,24.2, 7.6
2023/10/23 05:30:00,24.3, 7.9
2023/10/23 05:40:00,24.3, 7.8
2023/10/23 05:50:00,24.4, 7.7
2023/10/23 06:00:00,24.3, 7.6
2023/10/23 06:10:00,24.3, 7.6
2023/10/23 06:20:00,24.3, 7.4
2023/10/23 06:30:00,24.0, 7.4
2023/10/23 06:40:00,24.2, 7.3
2023/10/23 06:50:00,24.1, 7.6
2023/10/23 07:00:00,24.2, 7.7
2023/10/23 07:10:00,24.3, 7.5
2023/10/23 07:20:00,24.3, 7.6
2023/10/23 07:30:00,24.3, 8.0
2023/10/23 07:40:00,24.4, 8.1
2023/10/23 07:50:00,24.3, 8.5
2023/10/23 08:00:00,24.4, 9.1
2023/10/23 08:10:00,24.5, 9.6
2023/10/23 08:20:00,24.5, 9.9
2023/10/23 08:30:00,24.5,10.3
2023/10/23 08:40:00,24.7,10.9
2023/10/23 08:50:00,24.7,10.9
2023/10/23 09:00:00,24.7,11.2
2023/10/23 09:10:00,25.0,17.4
2023/10/23 09:20:00,25.4,19.8
2023/10/23 09:30:00,25.9,15.3
2023/10/23 09:40:00,25.6,13.8
2023/10/23 09:50:00,25.2,14.3
2023/10/23 10:00:00,24.8,14.3
2023/10/23 10:10:00,24.8,16.0
2023/10/23 10:20:00,24.9,15.3
2023/10/23 10:30:00,24.8,15.7
2023/10/23 10:40:00,25.1,16.0
2023/10/23 10:50:00,25.1,22.2
2023/10/23 11:00:00,25.4,21.6
2023/10/23 11:10:00,25.3,23.0
2023/10/23 11:20:00,25.2,21.5
2023/10/23 11:30:00, 5.3,20.1
2023/10/23 11:40:00,---,18.6
2023/10/23 11:50:00,25.6,19.0
2023/10/23 12:00:00,28.3,19.1
2023/10/23 12:10:00,25.2,18.8
2023/10/23 12:20:00,30.2,19.4
2023/10/23 12:30:00,25.8,19.4
2023/10/23 12:40:00,25.5,20.3
2023/10/23 12:50:00,25.5,21.4
2023/10/23 13:00:00,26.7,21.8
2023/10/23 13:10:00,27.1,19.7
2023/10/23 13:20:00,26.4,21.7
2023/10/23 13:30:00,31.4,21.6
2023/10/23 13:40:00,25.1,17.5
2023/10/23 13:50:00,24.9,17.9
2023/10/23 14:00:00,25.3,18.7
2023/10/23 14:10:00,25.8,19.9
2023/10/23 14:20:00,25.2,20.2
2023/10/23 14:30:00,24.7,20.2
2023/10/23 14:40:00,24.9,19.1
2023/10/23 14:50:00,24.7,18.3
2023/10/23 15:00:00,24.9,18.8
2023/10/23 15:10:00,25.0,19.2
2023/10/23 15:20:00,24.9,18.1
2023/10/23 15:30:00,24.8,17.6
2023/10/23 15:40:00,24.9,17.0
2023/10/23 15:50:00,25.0,17.1
2023/10/23 16:00:00,24.8,15.9
2023/10/23 16:10:00,24.8,14.8
2023/10/23 16:20:00,25.0,14.5
2023/10/23 16:30:00,25.2,14.2
2023/10/23 16:40:00,25.3,13.7
2023/10/23 16:50:00,25.3,13.3
2023/10/23 17:00:00,25.4,13.2
2023/10/23 17:10:00,25.5,12.7
2023/10/23 17:20:00,25.4,12.5
2023/10/23 17:30:00,25.0,12.4
2023/10/23 17:40:00,25.0,12.2
2023/10/23 17:50:00,25.1,12.0
2023/10/23 18:00:00,24.9,12.1
2023/10/23 18:10:00,24.8,11.4
2023/10/23 18:20:00,24.8,11.3
2023/10/23 18:30:00,24.7,11.1
2023/10/23 18:40:00,24.7,10.7
2023/10/23 18:50:00,24.7,10.7
2023/10/23 19:00:00,24.7,10.6
2023/10/23 19:10:00,24.8,10.8
2023/10/23 19:20:00,25.1,11.1
2023/10/23 19:30:00,25.6,11.0
2023/10/23 19:40:00,25.6,11.3
2023/10/23 19:50:00,25.4,11.1
2023/10/23 20:00:00,25.1,10.9
2023/10/23 20:10:00,25.0,11.0
2023/10/23 20:20:00,25.4,11.2
2023/10/23 20:30:00,25.5,11.2
2023/10/23 20:40:00,25.4,10.9
2023/10/23 20:50:00,25.3,10.9
2023/10/23 21:00:00,25.0,11.0
2023/10/23 21:10:00,24.8,10.9
2023/10/23 21:20:00,24.8,10.5
2023/10/23 21:30:00,24.7,10.2
2023/10/23 21:40:00,24.7,10.2
2023/10/23 21:50:00,24.5,10.0
2023/10/23 22:00:00,24.4, 9.6
2023/10/23 22:10:00,24.4, 9.6
2023/10/23 22:20:00,24.5, 9.6
2023/10/23 22:30:00,24.4, 9.6
2023/10/23 22:40:00,24.4, 9.3
2023/10/23 22:50:00,24.4, 9.1
2023/10/23 23:00:00,24.4, 9.1
2023/10/23 23:10:00,24.4, 8.9
2023/10/23 23:20:00,24.3, 8.7
2023/10/23 23:30:00,24.3, 8.7
2023/10/23 23:40:00,24.4, 8.8
2023/10/23 23:50:00,24.4, 8.7
